Tracking 26940 objects as of 28-Jan-2023
HD Live streaming from Space Station
objects crossing your sky now

CHINASAT 5A (CHINASTAR1)

Track CHINASAT 5A (CHINASTAR1) now!
CHINASAT 5A (CHINASTAR1) is classified as:


NORAD ID: 25354
Int'l Code: 1998-033A
Perigee: 36,149.7 km
Apogee: 36,163.5 km
Inclination: 5.9 °
Period: 1,454.7 minutes
Semi major axis: 42527 km
RCS: 0.003 m2 (small)
Launch date: May 30, 1998
Source: People's Republic of China (PRC)
Launch site: Xichang Space Center, China (XSC)

24 C-band, 24 Ku-band; voice and video communications throughout China and neighboring countries.
Your satellite tracking list
Your tracking list is empty




NASA's NSSDC Master Catalog

Two Line Element Set (TLE):
1 25354U 98033A   23028.10527814 -.00000045  00000-0  00000+0 0  9994
2 25354   5.9317  73.3389 0001631 133.3336 231.7698  0.98991246 94638
Source of the keplerian elements: AFSPC